"Pseudo-MPEC" for P10ONKc

Created 2019 Jun 15 19:08:28 UT using Find_Orb

Click here for an explanation of pseudo-MPECs

 
 Astrometry: 
     P10ONKc  C2019 05 26q]ArFb5$,%Eb^MM;P8*ZjMwXYD@E]'L/G'dcBIvg14n8*EP4%uWSF51
     P10ONKc  C2019 05 26u!Mt9THL!)jdy23ux0H7:mA(MD*ps_wGR,GTXH]If7[yf5Rv^ij+F51
     P10ONKc  C2019 05 30dMX'qQEVNl.Zncm)kQ\XA4TYWydBLw#wmTBI\52q)Ody)Z\ue?S,F51
     P10ONKc  C2019 06 02-ae?`*af'ddtr`xTu0KX9i2BIn=igpuu2;:rEU9LsWk=xymb%%!nF52
     P10ONKc  C2019 06 027Dr,;asf6HxQJPqcD@W58Ui+n0sHq4.3O[y@*QK!LeXp_5`wEO\=F52
     P10ONKc  C2019 06 02wm69ob(Wu18NQv%WwZYIyk?_[Y6.Mw_@gyiO[FJF^AstrometryRF52
     P10ONKc  C2019 06 02x51/2lB[E3T^n4ONvK\v9[ehpem#yn8e#J1E_V3:;'Nj0$l[`hNuF52
     P10ONKc  C2019 06 07-qkrdredacted;bu=Vh(4893xpFle(tU8x!M_CZ*s7hQ.x?7f2PdF51
     P10ONKc  C2019 06 07Ve(PttNOHgr$Q(XBJdP]AioLC3CiFs@HJivZkSeM1-QO8.g3w\_tF51
     P10ONKc  C2019 06 07Jf=92C3,x5V$S5J,Qqb]!TkhgB$MNmYB%WU1UDB/OD5EX`-;aa,)F51
     P10ONKc |C2019 06 08(N.Uj6H#X'4gmi15yhwnSBL9)AUDM^MUF\y7+#of77Y[HH46f1_s807
     P10ONKc |C2019 06 08.1g7SB6ZZc6[E5r*lAq^X*?[SSKsd0mrB4dOV/j=yKiwG[?r?w82807
     P10ONKc |C2019 06 08/k^]0H*\DsN]q\D4KA[a`-8c?$sd0Ne:1/X1),f@$]VHq\j,C*m#807
     P10ONKc  C2019 06 08.25465 16 49 06.17 -05 09 51.1    ~691q 19.8 GVNEOCPI52
     P10ONKc  C2019 06 08.25659 16 49 06.04 -05 09 48.5    ~691q 19.6 GVNEOCPI52
     P10ONKc  C2019 06 08.25854 16 49 05.86 -05 09 46.2    ~691q 19.9 GVNEOCPI52
     P10ONKc HC2019 06 09vWvU*aq:5\click.lf2OLRIPi%y;aCG*'ob$^Y0yP$ig2i3RUb$-691
     P10ONKc HC2019 06 091Twj-8RP96Xbx6h7Ix6SVY@hISt$oxfZ-=Kn/#yHmW1FGS]pRM#b691
     P10ONKc HC2019 06 09-x+0+%h!XT[eK`3Z=2]1Cn1j!n:Surp\p!l![^i8#;R7upIX'Gl7691
     P10ONKc HC2019 06 11(`,55$+rN,OgS,KCx)8Pt3FCF'Ds6.3Bx#]ONDmW1Gc6D;?\l9I8691
     P10ONKc HC2019 06 117ot[vmK^[m\^Gt3OZ-O[J?%f9;2R?JChxYF*#'R9eSgR)+2jZnnM691
     P10ONKc HC2019 06 1149CFEbKCPIVIo:vFs;am)lZM'(A[UVNRM:'pEQnutQAmlAT:$!N+691
     P10ONKc KC2019 06 12(VMce]79d2A5WLo%LjS#2!J-/df08q8Hx!35l+OWJFOv;U,brc*Y691
     P10ONKc KC2019 06 12sHE]`qvboQu+D'4Uy8!hereN4p]jFJNcT.\-@$p$N!T3E5GT4_/M691
     P10ONKc  C2019 06 13.29218 16 42 50.47 -03 25 47.7    ~6D7q       VNEOCPI52
     P10ONKc  C2019 06 13.30698 16 42 49.33 -03 25 30.8    ~6D7q 22.2 GVNEOCPI52
     P10ONKc KC2019 06 14q\B1cPsStI+jNYk\lkKmy9for,/U3i/*K/6MW/M0j!3uE;.6wT[HH21
     P10ONKc KC2019 06 14![;-Dqt3$8j+)=lD\E91jU?Z,sp/t+J[)AUp4.Fsk=5^a;@`.R*cH21
     P10ONKc KC2019 06 14KpyhexplanationYMs)/V%L'R['%Dnd_c+yr7][b!+aDd5qHxNMpH21

Station data:
(691) Steward Observatory, Kitt Peak - Spacewatch  (N31.962174 W111.600327)
   US/Arizona.  Observer J. V. Scotti. 0.9-m f/3 reflector + CCD.
(807) Cerro Tololo Observatory, La Serena  (S30.169136 W70.805900)  Chile.
(F51) Pan-STARRS 1, Haleakala  (N20.707235 W156.255910)  US/Hawaii.
   Observers N. Primak, A. Schultz, S. Watters, J. Thiel, T. Goggia. Measurer
   PS1 Science Consortium. 1.8-m Ritchey-Chrétien + CCD.
(F52) Pan-STARRS 2, Haleakala  (N20.707384 W156.255910)  US/Hawaii. 1.8-m
   Ritchey-Chrétien + CCD.
(H21) Astronomical Research Observatory, Westfield  (N39.483057 W87.968270)
   US/Illinois. 0.76-m f/3.0 astrograph + CCD.
(I52) Steward Observatory, Mt. Lemmon Station  (N32.442547 W110.788920)
   US/Arizona.  Observers T. A. Pruyne, B. M. Africano, E. J. Christensen, G.
   A. Farneth, D. C. Fuls, A. R. Gibbs, A. D. Grauer, H. Groeller, J. A.
   Johnson, R. A. Kowalski, S. M. Larson, G. J. Leonard, R. L. Seaman, F. C.
   Shelly. 1.0-m reflector + CCD.

Orbital elements:  P10ONKc
   Perihelion 2019 Dec 15.284414 +/- 0.114 TT =  6:49:33 (JD 2458832.784414)
Epoch 2019 Jun 14.0 TT = JDT 2458648.5   Earth MOID: 0.6582   AutoNEOCP
M 284.19882553 +/- 0.017            (J2000 ecliptic)
n   0.41132710 +/- 0.000178         Peri.  112.89322 +/- 0.0056
a   1.79065188 +/- 0.000516         Node   234.68358 +/- 0.011
e   0.1177071 +/- 0.000106          Incl.   20.95118 +/- 0.019
P   2.40/875.20d           H 19.4   G  0.15   U  6.9  
q 1.57987933 +/- 0.000527    Q 2.00142443 +/- 0.000572
From 29 observations 2019 May 26-June 14; mean residual 0".31
Residuals in arcseconds: 
190526 F51  .02+  .03+    190608 807  .08-  .16+    190611 691  .37+  .43+    
190526 F51  .00   .02-    190608 807  .23-  .80+    190611 691  .02-  .09+    
190530 F51  .02+  .07-    190608 807  .07-  .34+    190612 691  .38-  .47-    
190602 F52  .12-  .07+    190608 I52  .11+  .13-    190612 691  .44-  .17-    
190602 F52  .05-  .01+    190608 I52  .48+  .03-    190613 I52  .64+  .05-    
190602 F52  .03-  .01+    190608 I52  .12+  .25-    190613 I52  .54+  .67-    
190602 F52  .04-  .03+    190609 691  .18-  .18+    190614 H21  .20-  .62+    
190607 F51  .11+  .39-    190609 691  .40+  .19-    190614 H21  .16-  .14+    
190607 F51  .22-  .17-    190609 691  .36+  .17-    190614 H21  .25-  .00     
190607 F51  .10-  .09-    190611 691  1.0-  .17+    

Ephemerides (geocentric):
Date (UTC) HH   RA              Dec         delta   r     elong  mag " sig PA
---- -- -- --  -------------   -----------  ------ ------ -----  --- ---- ---
2019 06 15 19  16 39 52.249   -02 37 40.17  .78505 1.7604 155.5 20.9 .198  27
2019 06 15 20  16 39 49.338   -02 36 53.49  .78513 1.7603 155.4 20.9 .200  27
2019 06 15 21  16 39 46.429   -02 36 06.86  .78520 1.7602 155.4 20.9 .203  26
2019 06 15 22  16 39 43.522   -02 35 20.27  .78527 1.7602 155.3 20.9 .205  26
2019 06 15 23  16 39 40.618   -02 34 33.72  .78534 1.7601 155.3 20.9 .207  26
2019 06 16 00  16 39 37.715   -02 33 47.22  .78541 1.7601 155.3 20.9 .210  26
2019 06 16 01  16 39 34.815   -02 33 00.77  .78549 1.7600 155.2 20.9 .212  26
2019 06 16 02  16 39 31.917   -02 32 14.36  .78556 1.7599 155.2 20.9 .215  25
2019 06 16 03  16 39 29.021   -02 31 28.00  .78563 1.7599 155.1 20.9 .217  25
2019 06 16 04  16 39 26.127   -02 30 41.68  .78571 1.7598 155.1 20.9 .219  25
2019 06 16 05  16 39 23.236   -02 29 55.41  .78578 1.7597 155.0 20.9 .222  25
2019 06 16 06  16 39 20.346   -02 29 09.19  .78585 1.7597 155.0 20.9 .224  24
2019 06 16 07  16 39 17.459   -02 28 23.01  .78593 1.7596 155.0 20.9 .227  24
2019 06 16 08  16 39 14.574   -02 27 36.87  .78600 1.7595 154.9 20.9 .229  24
2019 06 16 09  16 39 11.691   -02 26 50.79  .78608 1.7595 154.9 20.9 .232  24
2019 06 16 10  16 39 08.811   -02 26 04.75  .78616 1.7594 154.8 20.9 .234  23
2019 06 16 11  16 39 05.932   -02 25 18.75  .78623 1.7594 154.8 20.9 .237  23
2019 06 16 12  16 39 03.056   -02 24 32.80  .78631 1.7593 154.8 20.9 .239  23
2019 06 16 13  16 39 00.182   -02 23 46.90  .78639 1.7592 154.7 20.9 .242  23
2019 06 16 14  16 38 57.311   -02 23 01.04  .78646 1.7592 154.7 20.9 .245  23
2019 06 16 15  16 38 54.441   -02 22 15.23  .78654 1.7591 154.6 20.9 .247  22
2019 06 16 16  16 38 51.574   -02 21 29.47  .78662 1.7590 154.6 20.9 .250  22
2019 06 16 17  16 38 48.709   -02 20 43.75  .78670 1.7590 154.5 20.9 .252  22
2019 06 16 18  16 38 45.847   -02 19 58.08  .78678 1.7589 154.5 20.9 .255  22
2019 06 16 19  16 38 42.987   -02 19 12.45  .78686 1.7588 154.5 20.9 .258  22
2019 06 16 20  16 38 40.129   -02 18 26.88  .78694 1.7588 154.4 20.9 .260  21
2019 06 16 21  16 38 37.273   -02 17 41.34  .78702 1.7587 154.4 20.9 .263  21
2019 06 16 22  16 38 34.419   -02 16 55.86  .78710 1.7587 154.3 20.9 .266  21
2019 06 16 23  16 38 31.568   -02 16 10.42  .78718 1.7586 154.3 20.9 .268  21
2019 06 17 00  16 38 28.720   -02 15 25.03  .78726 1.7585 154.2 20.9 .271  21
2019 06 17 01  16 38 25.873   -02 14 39.68  .78734 1.7585 154.2 20.9 .274  20
2019 06 17 02  16 38 23.029   -02 13 54.39  .78742 1.7584 154.2 20.9 .277  20
2019 06 17 03  16 38 20.187   -02 13 09.14  .78750 1.7583 154.1 20.9 .279  20
2019 06 17 04  16 38 17.348   -02 12 23.93  .78759 1.7583 154.1 20.9 .282  20
2019 06 17 05  16 38 14.511   -02 11 38.77  .78767 1.7582 154.0 20.9 .285  20
2019 06 17 06  16 38 11.676   -02 10 53.66  .78775 1.7581 154.0 20.9 .288  19
2019 06 17 07  16 38 08.844   -02 10 08.60  .78784 1.7581 154.0 20.9 .291  19
2019 06 17 08  16 38 06.014   -02 09 23.59  .78792 1.7580 153.9 20.9 .293  19
2019 06 17 09  16 38 03.186   -02 08 38.62  .78800 1.7580 153.9 20.9 .296  19
2019 06 17 10  16 38 00.361   -02 07 53.70  .78809 1.7579 153.8 20.9 .299  19
2019 06 17 11  16 37 57.538   -02 07 08.82  .78817 1.7578 153.8 20.9 .302  18
2019 06 17 12  16 37 54.718   -02 06 24.00  .78826 1.7578 153.7 20.9 .305  18
2019 06 17 13  16 37 51.900   -02 05 39.22  .78835 1.7577 153.7 20.9 .308  18
2019 06 17 14  16 37 49.084   -02 04 54.49  .78843 1.7576 153.7 20.9 .311  18
2019 06 17 15  16 37 46.271   -02 04 09.80  .78852 1.7576 153.6 20.9 .314  18
2019 06 17 16  16 37 43.460   -02 03 25.17  .78860 1.7575 153.6 20.9 .317  17
2019 06 17 17  16 37 40.652   -02 02 40.58  .78869 1.7575 153.5 20.9 .320  17
2019 06 17 18  16 37 37.846   -02 01 56.04  .78878 1.7574 153.5 20.9 .322  17